TRITON-1

Last updated on Fri Jul 11 2025 00:03:41 GMT+0000 (Coordinated Universal Time)

1 39427U 13066M 25191.58878652 .00001310 00000+0 17145-3 0 9993 2 39427 97.8351 104.5791 0092656 265.8492 93.2126 14.79211454623542
UTC large
Height (km)
Speed (km/s)
/
Latitude / Longitude
Inclination (degrees)
Orbital Period (minutes)
Azimuth
Elevation
Range (km)
Doppler Factor

Next 0 passes for location: London (51.5072 / 0.1276)

Sorry there are no passes over London.